Big Bear City, CA

8:23 PM PDT on September 19, 2019 (GMT -0700)
Big Bear City

Weather History for KL35 - May, 2019

Change the Weather History Date:

Thursday, May 23, 2019

  Actual Average (WUND) Record (WUND)
Temperature  
Mean Temperature 36 °F -  
Max Temperature 39 °F - - (-1)
Min Temperature 32 °F - - (-1)
Degree Days  
Heating Degree Days 30    
Moisture  
Dew Point 33 °F    
Average Humidity 96    
Maximum Humidity 100    
Minimum Humidity 81    
Precipitation  
Precipitation 0.01 in - - ()
Sea Level Pressure  
Sea Level Pressure 29.94 in    
Wind  
Wind Speed 5 mph (WSW)    
Max Wind Speed 15 mph    
Max Gust Speed 18 mph    
Visibility 7 miles    
Events Fog , Rain , Snow    
Averages and records for this station are not official NWS values.
T = Trace of Precipitation, MM = Missing Value Source: NWS Daily Summary

Daily Weather History Graph

Daily Weather History Graph

Search for Another Location

Airport or City:

Astronomy

May. 23, 2019 Rise Set
Actual Time 5:40 AM PDT 7:48 PM PDT
Civil Twilight 5:12 AM PDT 8:16 PM PDT
Nautical Twilight 4:37 AM PDT 8:51 PM PDT
Astronomical Twilight 4:00 AM PDT 9:28 PM PDT
Moon No Moon Rise 9:48 AM PDT (5/23)
Length of Visible Light 15h 04m
Length of Day
14h 07m
Waning Gibbous, 76% of the Moon is Illuminated
May 23
Waning Gibbous
May 26
Last Quarter
Jun 3
New
Jun 9
First Quarter
Jun 17
Full

Hourly Weather History & Observations

Time (PDT) Temp. Windchill Dew Point Humidity Pressure Visibility Wind Dir Wind Speed Gust Speed Precip Events Conditions
12:15 AM 32.0 °F 28.7 °F 32.0 °F 100% 29.81 in 10.0 mi WSW 3.5 mph - N/A   Overcast
12:35 AM 32.0 °F 28.7 °F 32.0 °F 100% 29.81 in 10.0 mi WSW 3.5 mph - N/A   Overcast
12:55 AM 32.0 °F - 32.0 °F 100% 29.81 in 10.0 mi Calm Calm - N/A   Overcast
1:15 AM 32.0 °F - 32.0 °F 100% 29.81 in 10.0 mi Calm Calm - N/A   Overcast
1:35 AM 32.0 °F 24.8 °F 32.0 °F 100% 29.81 in 10.0 mi West 8.1 mph - N/A   Overcast
1:55 AM 32.0 °F 28.7 °F 32.0 °F 100% 29.81 in 10.0 mi WSW 3.5 mph - N/A   Overcast
2:15 AM 32.0 °F - 32.0 °F 100% 29.81 in 7.0 mi Calm Calm - N/A Snow Light Snow
2:35 AM 32.0 °F - 32.0 °F 100% 29.81 in 1.2 mi Calm Calm - N/A Snow Light Snow
2:55 AM 32.0 °F 27.5 °F 32.0 °F 100% 29.81 in 3.0 mi SW 4.6 mph - N/A Snow Light Snow
3:15 AM 32.0 °F 26.4 °F 32.0 °F 100% 29.81 in 7.0 mi WSW 5.8 mph - N/A Snow Light Snow
3:35 AM 32.0 °F 28.7 °F 32.0 °F 100% 29.81 in 2.5 mi WSW 3.5 mph - N/A Snow Light Snow
3:55 AM 32.0 °F 28.7 °F 32.0 °F 100% 29.81 in 3.0 mi WSW 3.5 mph - 0.01 in Snow Light Snow
4:15 AM 32.0 °F 28.7 °F 32.0 °F 100% 29.81 in 10.0 mi WSW 3.5 mph - N/A   Overcast
4:35 AM 32.0 °F 26.4 °F 32.0 °F 100% 29.81 in 10.0 mi WSW 5.8 mph - N/A   Overcast
4:55 AM 32.0 °F 25.6 °F 32.0 °F 100% 29.81 in 10.0 mi SW 6.9 mph - N/A   Overcast
5:15 AM 32.0 °F 24.8 °F 32.0 °F 100% 29.82 in 10.0 mi WSW 8.1 mph - N/A   Overcast
5:35 AM 32.0 °F 24.8 °F 32.0 °F 100% 29.83 in 10.0 mi WSW 8.1 mph - N/A   Overcast
5:55 AM 32.0 °F 26.4 °F 32.0 °F 100% 29.84 in 3.0 mi WSW 5.8 mph - N/A   Overcast
6:15 AM 32.0 °F 25.6 °F 32.0 °F 100% 29.85 in 1.5 mi WSW 6.9 mph - N/A   Overcast
6:35 AM 32.0 °F 23.6 °F 32.0 °F 100% 29.85 in 2.0 mi West 10.4 mph - N/A   Overcast
6:55 AM 32.0 °F 24.2 °F 32.0 °F 100% 29.86 in 5.0 mi West 9.2 mph - N/A   Overcast
7:15 AM 32.0 °F 26.4 °F 32.0 °F 100% 29.86 in 10.0 mi WSW 5.8 mph - N/A   Overcast
7:35 AM 32.0 °F 24.8 °F 32.0 °F 100% 29.87 in 5.0 mi WSW 8.1 mph - N/A   Overcast
7:55 AM 32.0 °F 24.2 °F 32.0 °F 100% 29.88 in 4.0 mi West 9.2 mph - N/A   Overcast
8:15 AM 32.0 °F 23.6 °F 32.0 °F 100% 29.89 in 4.0 mi West 10.4 mph 16.1 mph N/A   Overcast
8:35 AM 32.0 °F 23.0 °F 32.0 °F 100% 29.90 in 1.8 mi West 11.5 mph - N/A   Overcast
8:55 AM 33.8 °F 25.8 °F 32.0 °F 93% 29.91 in 0.5 mi West 10.4 mph - N/A   Light Drizzle
9:15 AM 33.8 °F 25.8 °F 33.8 °F 100% 29.92 in 0.2 mi West 10.4 mph - N/A Fog Fog
9:35 AM 33.8 °F 25.8 °F 32.0 °F 93% 29.92 in 0.5 mi West 10.4 mph - N/A Fog Fog
9:55 AM 33.8 °F 27.7 °F 33.8 °F 100% 29.93 in 1.2 mi West 6.9 mph - N/A   Overcast
10:15 AM 33.8 °F 26.4 °F 33.8 °F 100% 29.94 in 2.0 mi West 9.2 mph - N/A   Overcast
10:35 AM 33.8 °F 26.4 °F 33.8 °F 100% 29.94 in 3.0 mi West 9.2 mph - N/A   Overcast
10:55 AM 33.8 °F 26.4 °F 33.8 °F 100% 29.95 in 5.0 mi WSW 9.2 mph 17.3 mph N/A   Overcast
11:15 AM 35.6 °F 32.8 °F 35.6 °F 100% 29.95 in 5.0 mi SW 3.5 mph - N/A   Overcast
11:35 AM 35.6 °F 27.5 °F 33.8 °F 93% 29.96 in 10.0 mi West 11.5 mph 18.4 mph N/A   Overcast
11:55 AM 35.6 °F 26.2 °F 35.6 °F 100% 29.97 in 7.0 mi West 15.0 mph - N/A   Overcast
12:15 PM 35.6 °F 29.9 °F 33.8 °F 93% 29.98 in 3.0 mi WSW 6.9 mph 16.1 mph N/A   Overcast
12:35 PM 35.6 °F 28.0 °F 35.6 °F 100% 29.98 in 4.0 mi West 10.4 mph - N/A   Overcast
12:55 PM 35.6 °F 29.2 °F 35.6 °F 100% 29.99 in 7.0 mi West 8.1 mph - N/A   Overcast
1:15 PM 35.6 °F 29.2 °F 35.6 °F 100% 29.99 in 4.0 mi WSW 8.1 mph - N/A   Drizzle
1:35 PM 35.6 °F 29.2 °F 35.6 °F 100% 29.99 in 10.0 mi West 8.1 mph - N/A   Overcast
1:55 PM 37.4 °F 30.8 °F 35.6 °F 93% 30.00 in 5.0 mi West 9.2 mph 17.3 mph N/A Rain Light Rain
2:15 PM 37.4 °F 28.9 °F 35.6 °F 93% 30.00 in 10.0 mi West 13.8 mph 18.4 mph N/A   Overcast
2:35 PM 37.4 °F 30.3 °F 35.6 °F 93% 30.00 in 10.0 mi West 10.4 mph 16.1 mph N/A   Overcast
2:55 PM 37.4 °F 31.4 °F 35.6 °F 93% 30.00 in 10.0 mi WSW 8.1 mph - N/A   Overcast
3:15 PM 37.4 °F 32.8 °F 35.6 °F 93% 30.00 in 10.0 mi WSW 5.8 mph - N/A   Overcast
3:35 PM 39.2 °F 31.6 °F 37.4 °F 93% 30.00 in 10.0 mi West 12.7 mph 18.4 mph N/A   Overcast
3:55 PM 39.2 °F 33.0 °F 35.6 °F 87% 30.00 in 10.0 mi West 9.2 mph 17.3 mph N/A   Overcast
4:15 PM 39.2 °F 31.2 °F 35.6 °F 87% 30.00 in 10.0 mi West 13.8 mph 18.4 mph N/A   Overcast
4:35 PM 37.4 °F 32.1 °F 35.6 °F 93% 30.00 in 10.0 mi WSW 6.9 mph 17.3 mph N/A   Overcast
4:55 PM 37.4 °F 32.1 °F 35.6 °F 93% 30.01 in 10.0 mi WSW 6.9 mph - N/A   Overcast
5:15 PM 37.4 °F 34.9 °F 35.6 °F 93% 30.01 in 10.0 mi SW 3.5 mph - N/A   Overcast
5:35 PM 39.2 °F 37.0 °F 35.6 °F 87% 30.01 in 10.0 mi WSW 3.5 mph - N/A   Overcast
5:55 PM 39.2 °F 33.0 °F 35.6 °F 87% 30.01 in 10.0 mi West 9.2 mph - N/A   Overcast
6:15 PM 39.2 °F 34.2 °F 33.8 °F 81% 30.01 in 10.0 mi WSW 6.9 mph - N/A   Overcast
6:35 PM 39.2 °F 33.0 °F 33.8 °F 81% 30.01 in 10.0 mi West 9.2 mph - N/A   Overcast
6:55 PM 39.2 °F 33.6 °F 33.8 °F 81% 30.01 in 10.0 mi West 8.1 mph - N/A   Overcast
7:15 PM 37.4 °F 34.9 °F 33.8 °F 87% 30.01 in 10.0 mi West 3.5 mph - N/A   Overcast
7:35 PM 37.4 °F - 33.8 °F 87% 30.01 in 10.0 mi Calm Calm - N/A   Scattered Clouds
7:55 PM 37.4 °F - 33.8 °F 87% 30.02 in 10.0 mi Calm Calm - N/A   Clear
8:15 PM 35.6 °F - 33.8 °F 93% 30.02 in 10.0 mi Calm Calm - N/A   Clear
8:35 PM 35.6 °F - 33.8 °F 93% 30.03 in 10.0 mi Calm Calm - N/A   Clear
8:55 PM 33.8 °F - 32.0 °F 93% 30.03 in 10.0 mi Calm Calm - N/A   Clear
9:15 PM 33.8 °F - 32.0 °F 93% 30.04 in 10.0 mi Calm Calm - N/A   Clear
9:35 PM 32.0 °F - 32.0 °F 100% 30.04 in 10.0 mi Calm Calm - N/A   Clear
9:55 PM 32.0 °F - 32.0 °F 100% 30.05 in 10.0 mi Calm Calm - N/A   Clear
10:15 PM 32.0 °F - 30.2 °F 93% 30.05 in 10.0 mi Calm Calm - N/A   Mostly Cloudy
10:35 PM 32.0 °F - 32.0 °F 100% 30.06 in 2.5 mi Calm Calm - N/A   Overcast
10:55 PM 32.0 °F - 32.0 °F 100% 30.06 in 4.0 mi Calm Calm - N/A   Overcast
11:15 PM 32.0 °F - 32.0 °F 100% 30.06 in 0.2 mi Calm Calm - N/A Fog Fog
11:35 PM 32.0 °F - 32.0 °F 100% 30.06 in 0.2 mi Calm Calm - N/A Fog Fog
11:55 PM 32.0 °F - 32.0 °F 100% 30.06 in 0.2 mi Calm Calm - N/A Fog Fog